Volver al catálogo

STARLINK-11708

ActivoComunicacionesVLEO
NORAD 64238·PAYLOAD·🇺🇸 United States

Lanzado Jun 3, 2025 desde Cape Canaveral Space Force Station

Loading…

Próximos Pases (próximas 24 horas)

TLE

ActualizadoSource: CelesTrak SupGP

Época: Sep 15, 2026, 02:47 UTC

1 64238C 25119F   26258.11645833  .00040853  00000+0  31730-3 0  2589
2 64238  43.0003 147.6705 0001728 270.4566  53.8652 15.70818233    11

Sigue STARLINK-11708 en tiempo real con AllMySat

Download on the App Store